Regional Weather Roundup
Issued by NWS Goodland, KS

Home | Current Version | Previous Version | Text Only | Print | Product List | Glossary On
Versions: 1 2 3 4 5 6 7 8 9 10 11 12 13 14 15 16 17 18 19 20 21 22 23 24 25 26 27 28 29 30 31 32 33 34 35 36 37 38 39 40 41 42 43 44 45 46 47 48 49 50
000
ASUS43 KGLD 251659
RWRGLD

GOODLAND FORECAST AREA HOURLY WEATHER ROUNDUP
NATIONAL WEATHER SERVICE GOODLAND KS
1000 AM MST SUN JAN 25 2015

...OFFICIAL OBSERVATIONS...

CITY           SKY/WX    TMP DP  RH WIND       PRES   REMARKS
GOODLAND KS    SUNNY     47  29  49 NW24G31   30.12R
HILL CITY KS   SUNNY     47  26  44 NW25G33   30.09R
IMPERIAL NEB   SUNNY     44  28  53 NW21      30.11R
MCCOOK NEB     SUNNY     47  24  40 NW25G38   30.09R
AKRON CO       CLOUDY    39  29  67 W7        30.16R
BURLINGTON CO  SUNNY     45  29  53 NW23G30   30.13S
LIMON CO       CLOUDY    42  29  59 NW7       30.18S
$$

...UNOFFICIAL OBSERVATIONS...

CITY           SKY/WX    TMP DP  RH WIND       PRES   REMARKS
COLBY KS       SUNNY     45  32  61 NW17G28   30.12R
GOVE KS          N/A     45  32  60 MISG        N/A
NORTON KS      SUNNY     45  25  45 NW26G33   30.07R
SHARON SPRINGS   N/A     47  31  54 NW20G31     N/A
KIT CARSON CO    N/A     47  30  51 MISG        N/A
YUMA CO          N/A     43  30  60 N20         N/A
$$


USA.gov is the U.S. government's official web portal to all federal, state and local government web resources and services.